Погода в Советском

Россия / Республика Марий Эл     56°45′39″N   48°28′45″E
темп.,
°C
ветер,
м/с
пор.,
м/с
влажн.,
%
обл.,
%
осадки,
мм/ч
давл.,
гПа
погр.,
м
11 апреля, вс
вс1100:00+1св12100100 0.1 102648
03:00+1ссв24100100 0.1 1027126
06:00+1с25100100 0.0 1028146
09:00+1ссз24100100 0.0 1029120
12:00+1ссз23100100 0.1 1031150
15:00+1ссз12100100 0.1 1032107
18:00+1ссв11100100 0.0 103418
21:000св1199100 0.0 103527
12 апреля, пн
пн1200:00−1ссв119997 0.0 103630
03:000св2499100 0.0 103885
06:00+1св47100100 0.0 1038182
09:00+2всв47100100 0.0 1039228
12:00+3в479999 0.0 1039267
15:00+4в4697100 0.0 1039281
18:00+4всв3899100 0.0 1038182
21:00+3в41099100 0.0 1038178
13 апреля, вт
вт1300:00+3вюв41192100 0.0 1037204
03:00+2юв3892100 0.0 1036135
06:00+3юв3897100 0.0 1035138
09:00+9ююв478966 0.0 1034273
12:00+13ю4678100 0.0 1033531
15:00+15ю4776100 0.0 1031640
18:00+11ююв3486100 0.0 103047
21:00+8ю368896 0.0 103190
14 апреля, ср
ср1400:00+6ю368150 0.0 103081
03:00+5ю338270 0.0 103041
06:00+5ю357951 0.0 102967
09:00+12ююз356041 0.0 1028300
12:00+16ююз464621 0.0 1027942
15:00+17юз46415 0.0 10261299
18:00+13ю33605 0.0 102529
21:00+9ю347386 0.0 102557
15 апреля, чт
чт1500:00+7ююз347517 0.0 102451
03:00+6ю33735 0.0 102338
06:00+6ю347241 0.0 102270
09:00+12ююз355374 0.0 1021353
12:00+16юз4539100 0.0 10191044
15:00+17юз4536100 0.0 10181406
18:00+14юз225246 0.0 101622
21:00+10зюз226282 0.0 101611